| time (UTC) | temp C | wind direction | speed KPH | gust KPH | rain 1hr cm | rain 24hr cm | rain mn cm | humidity % | barometer mb |
| 20260502211002 | 19 | 45 | 0.0 | 3.2 | 0.00 | 0.00 | 0.00 | 100 | 1012.2 |
| 20260502210001 | 18 | 90 | 0.0 | 0.0 | 0.00 | 0.00 | 0.00 | 100 | 1012.2 |
| 20260502204959 | 17 | 87 | 0.0 | 1.6 | 0.00 | 0.00 | 0.00 | 100 | 1012.1 |
| 20260502203958 | 17 | 85 | 0.0 | 6.4 | 0.00 | 0.00 | 0.00 | 100 | 1011.9 |
| 20260502202957 | 17 | 45 | 0.0 | 3.2 | 0.00 | 0.00 | 0.00 | 100 | 1011.9 |
| 20260502201955 | 17 | 75 | 0.0 | 1.6 | 0.00 | 0.00 | 0.00 | 100 | 1011.8 |
| 20260502200954 | 17 | 58 | 1.6 | 4.8 | 0.00 | 0.00 | 0.00 | 100 | 1011.7 |
| 20260502195953 | 17 | 45 | 0.0 | 4.8 | 0.00 | 0.00 | 0.00 | 100 | 1011.7 |
| 20260502194951 | 17 | 69 | 1.6 | 4.8 | 0.00 | 0.00 | 0.00 | 100 | 1011.5 |
| 20260502193950 | 17 | 83 | 3.2 | 4.8 | 0.00 | 0.00 | 0.00 | 100 | 1011.7 |
| 20260502192948 | 17 | 45 | 1.6 | 1.6 | 0.00 | 0.00 | 0.00 | 100 | 1011.9 |
| 20260502191947 | 17 | 135 | 0.0 | 0.0 | 0.00 | 0.00 | 0.00 | 100 | 1011.9 |
| 20260502190946 | 17 | 225 | 0.0 | 4.8 | 0.00 | 0.00 | 0.00 | 100 | 1011.8 |
| 20260502184943 | 17 | 101 | 0.0 | 1.6 | 0.00 | 0.00 | 0.00 | 100 | 1011.6 |
| 20260502183942 | 17 | 67 | 0.0 | 1.6 | 0.00 | 0.00 | 0.00 | 100 | 1011.6 |
| 20260502182940 | 17 | 112 | 0.0 | 1.6 | 0.00 | 0.00 | 0.00 | 100 | 1011.9 |
| 20260502181939 | 17 | 87 | 0.0 | 1.6 | 0.00 | 0.00 | 0.00 | 100 | 1011.4 |
| 20260502180938 | 18 | 112 | 0.0 | 0.0 | 0.00 | 0.00 | 0.00 | 100 | 1011.4 |
| 20260502163925 | 18 | 45 | 0.0 | 0.0 | 0.00 | 0.00 | 0.00 | 100 | 1011.1 |
| 20260502162924 | 18 | 45 | 0.0 | 0.0 | 0.00 | 0.00 | 0.00 | 100 | 1011.0 |
| 20260502161923 | 18 | 63 | 0.0 | 0.0 | 0.00 | 0.00 | 0.00 | 100 | 1011.1 |
| 20260502160921 | 18 | 45 | 0.0 | 0.0 | 0.00 | 0.00 | 0.00 | 100 | 1011.3 |
| 20260502151914 | 19 | 90 | 0.0 | 1.6 | 0.00 | 0.00 | 0.00 | 100 | 1011.6 |
| 20260502150913 | 20 | 77 | 0.0 | 3.2 | 0.00 | 0.00 | 0.00 | 100 | 1011.6 |
| 20260502122851 | 21 | 45 | 0.0 | 0.0 | 0.00 | 0.00 | 0.00 | 100 | 1010.6 |
| 20260502121850 | 21 | 270 | 0.0 | 0.0 | 0.00 | 0.00 | 0.00 | 100 | 1010.8 |
| 20260502120850 | 21 | 45 | 0.0 | 0.0 | 0.00 | 0.00 | 0.00 | 100 | 1010.6 |
| 20260502115847 | 22 | 96 | 0.0 | 0.0 | 0.00 | 0.00 | 0.00 | 100 | 1010.5 |
| 20260502114846 | 22 | 45 | 0.0 | 0.0 | 0.00 | 0.00 | 0.00 | 100 | 1010.3 |
| 20260502113845 | 22 | 112 | 0.0 | 0.0 | 0.00 | 0.00 | 0.00 | 100 | 1010.1 |
| 20260502112843 | 22 | 67 | 0.0 | 0.0 | 0.00 | 0.00 | 0.00 | 100 | 1009.8 |
| 20260502110840 | 22 | 45 | 0.0 | 0.0 | 0.00 | 0.00 | 0.00 | 100 | 1009.7 |
| 20260502104838 | 23 | 78 | 0.0 | 1.6 | 0.00 | 0.00 | 0.00 | 100 | 1009.3 |
| 20260502103838 | 23 | 90 | 0.0 | 0.0 | 0.00 | 0.00 | 0.00 | 100 | 1009.3 |
| 20260502102835 | 23 | 101 | 0.0 | 1.6 | 0.00 | 0.00 | 0.00 | 100 | 1009.2 |
| 20260502101834 | 23 | 90 | 0.0 | 0.0 | 0.00 | 0.00 | 0.00 | 100 | 1009.1 |
| 20260502100832 | 23 | 45 | 0.0 | 1.6 | 0.00 | 0.00 | 0.00 | 100 | 1009.1 |
| 20260502090824 | 25 | 90 | 0.0 | 1.6 | 0.00 | 0.00 | 0.00 | 100 | 1008.4 |
| 20260502070808 | 27 | 90 | 3.2 | 4.8 | 0.00 | 0.00 | 0.00 | 100 | 1006.9 |
| 20260502065806 | 27 | 163 | 0.0 | 1.6 | 0.00 | 0.00 | 0.00 | 100 | 1006.8 |
| 20260502062802 | 27 | 75 | 1.6 | 1.6 | 0.00 | 0.00 | 0.00 | 100 | 1006.3 |
| 20260502061801 | 27 | 209 | 1.6 | 3.2 | 0.00 | 0.00 | 0.00 | 100 | 1006.1 |
| 20260502055758 | 27 | 112 | 0.0 | 4.8 | 0.00 | 0.00 | 0.00 | 100 | 1005.8 |
| 20260502054757 | 27 | 128 | 3.2 | 3.2 | 0.00 | 0.00 | 0.00 | 100 | 1005.6 |
| 20260502053755 | 28 | 141 | 0.0 | 6.4 | 0.00 | 0.00 | 0.00 | 100 | 1005.5 |
| 20260502052754 | 28 | 45 | 0.0 | 4.8 | 0.00 | 0.00 | 0.00 | 100 | 1005.4 |
| 20260502051753 | 28 | 95 | 3.2 | 4.8 | 0.00 | 0.00 | 0.00 | 100 | 1005.3 |
| 20260502050753 | 28 | 72 | 4.8 | 6.4 | 0.00 | 0.00 | 0.00 | 100 | 1005.1 |
| 20260502045750 | 29 | 191 | 1.6 | 4.8 | 0.00 | 0.00 | 0.00 | 100 | 1005.1 |
| 20260502042748 | 31 | 95 | 1.6 | 4.8 | 0.00 | 0.00 | 0.00 | 100 | 1005.0 |
| 20260502041747 | 30 | 87 | 1.6 | 8.0 | 0.00 | 0.00 | 0.00 | 100 | 1005.0 |
| 20260502034742 | 30 | 90 | 3.2 | 6.4 | 0.00 | 0.00 | 0.00 | 100 | 1004.8 |
| 20260502033739 | 30 | 80 | 1.6 | 6.4 | 0.00 | 0.00 | 0.00 | 100 | 1004.6 |
| 20260502032738 | 30 | 61 | 4.8 | 4.8 | 0.00 | 0.00 | 0.00 | 100 | 1004.8 |
| 20260502031736 | 29 | 85 | 1.6 | 4.8 | 0.00 | 0.00 | 0.00 | 100 | 1004.7 |
| 20260502030735 | 29 | 247 | 1.6 | 6.4 | 0.00 | 0.00 | 0.00 | 100 | 1004.5 |
| 20260502025734 | 29 | 63 | 0.0 | 4.8 | 0.00 | 0.00 | 0.00 | 100 | 1004.4 |
| 20260502024732 | 30 | 78 | 3.2 | 6.4 | 0.00 | 0.00 | 0.00 | 100 | 1004.2 |
| 20260502021728 | 30 | 60 | 3.2 | 3.2 | 0.00 | 0.00 | 0.00 | 100 | 1003.9 |
| 20260502015726 | 29 | 78 | 0.0 | 4.8 | 0.00 | 0.00 | 0.00 | 100 | 1003.6 |
| 20260502014724 | 29 | 168 | 1.6 | 9.7 | 0.00 | 0.00 | 0.00 | 100 | 1003.6 |
| 20260502013723 | 28 | 106 | 4.8 | 9.7 | 0.00 | 0.00 | 0.00 | 100 | 1003.5 |
| 20260502012721 | 28 | 101 | 6.4 | 6.4 | 0.00 | 0.00 | 0.00 | 100 | 1003.4 |
| 20260502011720 | 28 | 87 | 3.2 | 6.4 | 0.00 | 0.00 | 0.00 | 100 | 1003.3 |
| 20260502010719 | 28 | 60 | 4.8 | 16.1 | 0.00 | 0.00 | 0.00 | 100 | 1003.3 |
| 20260502005717 | 28 | 222 | 9.7 | 12.9 | 0.00 | 0.00 | 0.00 | 100 | 1003.4 |
| 20260502004716 | 29 | 195 | 6.4 | 19.3 | 0.00 | 0.00 | 0.00 | 100 | 1003.3 |
| 20260502003715 | 30 | 238 | 19.3 | 19.3 | 0.00 | 0.00 | 0.00 | 100 | 1003.2 |
| 20260502002713 | 31 | 222 | 9.7 | 16.1 | 0.00 | 0.00 | 0.00 | 100 | 1003.1 |
| 20260502001712 | 31 | 183 | 9.7 | 12.9 | 0.00 | 0.00 | 0.00 | 100 | 1002.9 |
| 20260502000711 | 31 | 96 | 1.6 | 4.8 | 0.00 | 0.00 | 0.00 | 100 | 1003.0 |
| 20260501234708 | 31 | 45 | 0.0 | 3.2 | 0.00 | 0.00 | 0.00 | 100 | 1002.8 |
| 20260501233706 | 30 | 94 | 0.0 | 6.4 | 0.00 | 0.00 | 0.00 | 100 | 1002.6 |
| 20260501232705 | 30 | 58 | 1.6 | 4.8 | 0.00 | 0.00 | 0.00 | 100 | 1002.3 |
| 20260501231704 | 30 | 69 | 3.2 | 4.8 | 0.00 | 0.00 | 0.00 | 100 | 1002.3 |
| 20260501230702 | 29 | 120 | 0.0 | 0.0 | 0.00 | 0.00 | 0.00 | 100 | 1001.9 |
| 20260501225701 | 28 | 266 | 0.0 | 4.8 | 0.00 | 0.00 | 0.00 | 100 | 1001.7 |
| 20260501224700 | 27 | 51 | 0.0 | 1.6 | 0.00 | 0.00 | 0.00 | 100 | 1001.7 |
| 20260501223658 | 26 | 78 | 1.6 | 3.2 | 0.00 | 0.00 | 0.00 | 100 | 1001.4 |
| 20260501222657 | 26 | 81 | 1.6 | 4.8 | 0.00 | 0.00 | 0.00 | 100 | 1001.1 |
| 20260501221656 | 26 | 73 | 1.6 | 4.8 | 0.00 | 0.00 | 0.00 | 100 | 1001.0 |
| 20260501220654 | 25 | 19 | 0.0 | 4.8 | 0.00 | 0.00 | 0.00 | 100 | 1000.9 |
| 20260501215653 | 24 | 270 | 0.0 | 6.4 | 0.00 | 0.00 | 0.00 | 100 | 1000.6 |
| 20260501214652 | 23 | 74 | 4.8 | 4.8 | 0.00 | 0.00 | 0.00 | 100 | 1000.5 |
| 20260501213650 | 22 | 11 | 0.0 | 4.8 | 0.00 | 0.00 | 0.00 | 100 | 1000.1 |
| 20260501212649 | 21 | 90 | 0.0 | 3.2 | 0.00 | 0.00 | 0.00 | 100 | 1000.0 |
| 20260501211647 | 20 | 56 | 1.6 | 3.2 | 0.00 | 0.00 | 0.00 | 100 | 999.7 |